Morris, IL

3:23 PM CDT on August 27, 2016 (GMT -0500)
Morris

Weather History for KC09 - May, 2013

Change the Weather History Date:

Friday, May 17, 2013

  Actual Average (KLOT) Record (KLOT)
Temperature  
Mean Temperature 68 °F 61 °F  
Max Temperature 80 °F 71 °F 89 °F (1996)
Min Temperature 58 °F 50 °F 35 °F (2011)
Degree Days  
Heating Degree Days 0 6  
Month to date heating degree days 131  
Since 1 July heating degree days 6125  
Cooling Degree Days 4 2  
Month to date cooling degree days 19  
Year to date cooling degree days 24  
Growing Degree Days 18 (Base 50)    
Moisture  
Dew Point 55 °F    
Average Humidity 69    
Maximum Humidity 94    
Minimum Humidity 43    
Precipitation  
Precipitation 0.08 in 0.13 in 0.74 in (1999)
Month to date precipitation 2.30  
Year to date precipitation 12.74  
Sea Level Pressure  
Sea Level Pressure 29.99 in    
Wind  
Wind Speed 3 mph (ENE)    
Max Wind Speed 9 mph    
Max Gust Speed -    
Visibility 9 miles    
Events Rain    
T = Trace of Precipitation, MM = Missing Value Source: NWS Daily Summary

Daily Weather History Graph

Daily Weather History Graph

Search for Another Location

Airport or City:

Trip Planner

Search our weather history database for the weather conditions in past years. The results will help you decide how hot, cold, wet, or windy it might be!

Date:

Astronomy

May. 17, 2013 Rise Set
Actual Time 5:32 AM CDT 8:08 PM CDT
Civil Twilight 5:00 AM CDT 8:39 PM CDT
Nautical Twilight 4:21 AM CDT 9:19 PM CDT
Astronomical Twilight 3:36 AM CDT 10:04 PM CDT
Moon 12:06 PM CDT (5/17) 12:58 AM CDT (5/17)
Length of Visible Light 15h 39m
Length of Day
14h 35m
Waxing Crescent, 45% of the Moon is Illuminated
May 17
Waxing Crescent
May 17
First Quarter
May 24
Full
May 31
Last Quarter
Jun 8
New

Hourly Weather History & Observations

Time (CDT) Temp. Dew Point Humidity Pressure Visibility Wind Dir Wind Speed Gust Speed Precip Events Conditions
12:15 AM 64.2 °F 45.7 °F 51% 29.98 in 10.0 mi Calm Calm - N/A Rain Light Rain
12:35 AM 61.7 °F 48.2 °F 61% 29.97 in 5.0 mi Calm Calm - 0.01 in Rain Rain
12:55 AM 59.9 °F 52.3 °F 76% 29.96 in 10.0 mi East 5.8 mph - 0.02 in Rain Light Rain
1:15 AM 61.7 °F 49.3 °F 64% 29.96 in 10.0 mi East 5.8 mph - 0.01 in   Light Drizzle
1:35 AM 61.5 °F 49.1 °F 64% 29.95 in 10.0 mi ENE 5.8 mph - 0.01 in   Mostly Cloudy
1:55 AM 61.3 °F 49.3 °F 65% 29.95 in 10.0 mi ENE 5.8 mph - 0.01 in   Overcast
2:15 AM 61.0 °F 50.2 °F 68% 29.95 in 10.0 mi Calm Calm - N/A   Overcast
2:35 AM 60.6 °F 49.5 °F 67% 29.95 in 10.0 mi Calm Calm - N/A   Overcast
2:55 AM 60.8 °F 47.1 °F 61% 29.95 in 10.0 mi NE 3.5 mph - N/A   Mostly Cloudy
3:15 AM 60.4 °F 47.3 °F 62% 29.96 in 10.0 mi NE 3.5 mph - N/A   Overcast
3:35 AM 60.3 °F 47.5 °F 63% 29.96 in 10.0 mi NNE 3.5 mph - N/A   Mostly Cloudy
3:55 AM 60.1 °F 46.8 °F 61% 29.96 in 10.0 mi NE 3.5 mph - N/A   Scattered Clouds
4:15 AM 59.7 °F 46.8 °F 62% 29.96 in 10.0 mi NNE 3.5 mph - N/A   Clear
4:35 AM 59.5 °F 46.4 °F 62% 29.96 in 10.0 mi ENE 4.6 mph - N/A   Scattered Clouds
4:55 AM 59.0 °F 46.8 °F 64% 29.96 in 10.0 mi Calm Calm - N/A   Scattered Clouds
5:15 AM 59.0 °F 48.0 °F 67% 29.97 in 10.0 mi Calm Calm - N/A   Scattered Clouds
5:35 AM 58.8 °F 47.5 °F 66% 29.97 in 10.0 mi Calm Calm - N/A   Scattered Clouds
5:55 AM 58.3 °F 47.5 °F 67% 29.98 in 10.0 mi Calm Calm - N/A   Clear
6:15 AM 59.0 °F 47.5 °F 66% 29.98 in 10.0 mi Calm Calm - N/A   Scattered Clouds
6:35 AM 58.8 °F 48.7 °F 69% 29.99 in 10.0 mi North 3.5 mph - N/A   Scattered Clouds
6:55 AM 60.4 °F 49.8 °F 68% 29.99 in 10.0 mi Calm Calm - N/A   Mostly Cloudy
7:15 AM 61.7 °F 50.4 °F 66% 30.00 in 10.0 mi Calm Calm - N/A   Overcast
7:35 AM 62.8 °F 50.5 °F 64% 30.00 in 10.0 mi Calm Calm - N/A   Overcast
7:55 AM 63.7 °F 50.5 °F 62% 30.00 in 10.0 mi Calm Calm - N/A   Scattered Clouds
8:15 AM 64.8 °F 51.4 °F 62% 30.00 in 10.0 mi Calm Calm - N/A   Clear
8:35 AM 65.5 °F 54.1 °F 67% 30.01 in 10.0 mi South 3.5 mph - N/A   Clear
8:55 AM 66.4 °F 55.9 °F 69% 30.01 in 10.0 mi Calm Calm - N/A   Clear
9:15 AM 68.0 °F 57.4 °F 69% 30.01 in 10.0 mi Calm Calm - N/A   Clear
9:35 AM 69.1 °F 58.6 °F 69% 30.01 in 10.0 mi Calm Calm - N/A   Clear
9:55 AM 71.1 °F 58.5 °F 64% 30.01 in 10.0 mi Calm Calm - N/A   Clear
10:15 AM 73.2 °F 58.8 °F 61% 30.01 in 10.0 mi Calm Calm - N/A   Clear
10:35 AM 75.0 °F 56.3 °F 52% 30.01 in 10.0 mi Calm Calm - N/A   Clear
10:55 AM 77.2 °F 54.3 °F 45% 30.01 in 10.0 mi Calm Calm - N/A   Clear
11:15 AM 77.4 °F 57.0 °F 49% 30.01 in 10.0 mi SW 3.5 mph - N/A   Clear
11:35 AM 77.5 °F 54.9 °F 45% 30.01 in 10.0 mi Calm Calm - N/A   Clear
11:55 AM 79.0 °F 54.9 °F 43% 30.00 in 10.0 mi WNW 3.5 mph - N/A   Clear
12:15 PM 79.2 °F 56.1 °F 45% 30.00 in 10.0 mi ESE 6.9 mph - N/A   Scattered Clouds
12:35 PM 79.0 °F 55.8 °F 45% 30.00 in 10.0 mi ESE 5.8 mph - N/A   Clear
12:55 PM 79.9 °F 56.8 °F 45% 29.99 in 10.0 mi East 5.8 mph - N/A   Scattered Clouds
1:15 PM 79.7 °F 56.5 °F 45% 29.99 in 10.0 mi ENE 3.5 mph - N/A   Scattered Clouds
1:35 PM 79.9 °F 56.8 °F 45% 29.98 in 10.0 mi East 6.9 mph - N/A   Scattered Clouds
1:55 PM 78.8 °F 57.2 °F 47% 29.97 in 10.0 mi East 5.8 mph - N/A   Scattered Clouds
2:15 PM 78.8 °F 57.4 °F 48% 29.98 in 10.0 mi East 4.6 mph - N/A Rain Rain
2:35 PM 73.8 °F 61.2 °F 65% 29.98 in 5.0 mi NNW 3.5 mph - 0.02 in Rain Rain
2:55 PM 74.3 °F 63.3 °F 68% 29.98 in 10.0 mi North 3.5 mph - 0.02 in Rain Light Rain
3:15 PM 72.9 °F 61.3 °F 67% 29.99 in 5.0 mi ENE 5.8 mph - 0.02 in Rain Rain
3:35 PM 70.5 °F 64.2 °F 80% 29.99 in 7.0 mi East 9.2 mph - 0.02 in Rain Light Rain
3:55 PM 69.1 °F 63.7 °F 83% 29.99 in 10.0 mi ESE 6.9 mph - 0.02 in   Scattered Clouds
4:15 PM 68.2 °F 66.4 °F 94% 30.00 in 5.0 mi East 9.2 mph - N/A Rain Rain
4:35 PM 66.2 °F 64.0 °F 93% 30.00 in 5.0 mi ENE 5.8 mph - N/A Rain Light Rain
4:55 PM 66.2 °F 64.2 °F 93% 30.01 in 5.0 mi ENE 5.8 mph - 0.01 in Rain Light Rain
5:15 PM 65.3 °F 63.3 °F 93% 30.00 in 5.0 mi ENE 6.9 mph - N/A Rain Light Rain
5:35 PM 65.1 °F 63.0 °F 93% 29.99 in 7.0 mi NE 5.8 mph - N/A   Scattered Clouds
5:55 PM 65.3 °F 62.8 °F 92% 29.99 in 7.0 mi ENE 6.9 mph - N/A   Clear
6:15 PM 65.5 °F 62.6 °F 90% 29.99 in 7.0 mi ENE 6.9 mph - N/A   Clear
6:35 PM 65.7 °F 62.4 °F 89% 29.99 in 10.0 mi ENE 6.9 mph - N/A   Scattered Clouds
6:55 PM 66.2 °F 62.8 °F 89% 29.99 in 10.0 mi ENE 8.1 mph - N/A   Scattered Clouds
7:15 PM 66.2 °F 63.7 °F 92% 30.00 in 7.0 mi ENE 9.2 mph - N/A   Scattered Clouds
7:35 PM 65.8 °F 62.8 °F 90% 30.01 in 7.0 mi ENE 9.2 mph - N/A   Scattered Clouds
7:55 PM 65.8 °F 62.2 °F 88% 30.01 in 10.0 mi ENE 6.9 mph - N/A   Scattered Clouds
8:15 PM 65.5 °F 61.7 °F 88% 30.01 in 10.0 mi ENE 4.6 mph - N/A   Scattered Clouds
8:35 PM 64.8 °F 61.5 °F 89% 30.01 in 10.0 mi NE 5.8 mph - N/A   Scattered Clouds
8:55 PM 64.9 °F 60.4 °F 85% 30.01 in 10.0 mi ENE 5.8 mph - N/A   Scattered Clouds
9:15 PM 64.4 °F 59.9 °F 85% 30.02 in 10.0 mi NNE 3.5 mph - N/A   Overcast
9:35 PM 63.7 °F 55.0 °F 73% 30.02 in 10.0 mi ENE 4.6 mph - N/A   Overcast
9:55 PM 63.0 °F 54.7 °F 74% 30.03 in 10.0 mi Calm Calm - N/A   Overcast
10:15 PM 62.6 °F 54.9 °F 76% 30.02 in 10.0 mi Calm Calm - N/A   Overcast
10:35 PM 62.1 °F 55.4 °F 79% 30.02 in 10.0 mi Calm Calm - N/A   Scattered Clouds
10:55 PM 62.2 °F 55.6 °F 79% 30.02 in 10.0 mi Calm Calm - N/A   Clear
11:15 PM 62.1 °F 56.3 °F 81% 30.02 in 10.0 mi Calm Calm - N/A   Clear
11:35 PM 61.7 °F 56.3 °F 82% 30.01 in 10.0 mi Calm Calm - N/A   Scattered Clouds
11:55 PM 61.3 °F 56.1 °F 83% 30.01 in 10.0 mi NE 3.5 mph - N/A   Clear